COSMOS 2460 (732)

Last updated on Jan. 23, 2021, 7:31 a.m. UTC

1 36402U 10007C   21022.59141575 -.00000035  00000-0  00000-0 0  9996
2 36402  65.9184  20.4991 0002663 272.2718 273.3091  2.13106498 84800
UTC
Height (km)
Latitude
Longitude
Inclination
Orbital Period
UTC large
Height (km)
Speed (km/s)
/
Latitude / Longitude
Inclination (degrees)
Orbital Period (minutes)
Azimuth
Elevation
Range (km)
Doppler Factor
iOS Compass Heading
iOS Angle

Next 30 passes for location: Hong Kong

Rise time Rise Azimuth (degrees) Set time Set Azimuth (degrees) Duration Max altitude (degrees)

No matching passes for this satellites